BREEZE-M R/B, 41311

Orbit data source: Space-Track

BREEZE-M R/B, 41311 is space debris in HEO originally from a launch on Fri, 29 Jan 2016 UTC launched from the Tyuratam Missile And Space Complex (TTMTR). Debris objects in space refer to the collection of defunct objects orbiting the Earth. Examples of debris include non-operational satellites, rocket bodies, and fragments generated from explosions, collisions, or faulty payload assembly.

Loading next visibility...
Identifier
41311, 2016-005B
Orbit
HEO
Last TLE update
2 days ago
Origin
Manufacturer
Khrunichev
Mission
Spacecraft
Bus & Motor
BRIZ, Unknown motor
Mass
~1,600 kg wet, 1,600 kg dry
Launch date (UTC)
2016-01-29 (9 years ago)
Launch vehicle
Unknown
Launch site
Tyuratam Missile And Space Complex (TTMTR)
Object type
Payload
Rocket body
Debris
Shape & HBR
Cyl, 4 m
Radar Cross Section
14.451 m², Large (>1 m²)

Expand to show TLE details & history

TLE from 2 days ago
0 BREEZE-M R/B
1 41311U 16005B   25189.02628639 -.00000022  00000-0  00000-0 0  9998
2 41311  12.0627 166.1719 5919736 203.5362 111.2911  2.17160526 74863
Epoch: 2025-07-08T00:37Z
TLE epoch observation values (Epoch: 2025-07-08T00:37:51.144Z)
Latitude
-0.0001°
Longitude
-129.62216°
Altitude
29,367.893 km
Speed
2.545 km/s
True Right ascension
11h 04m 16s
True Declination
0° 00' 00"
Sunlit
Object was in daylight at epoch
Visualization orbit readout
Latitude
9.70463°
Longitude
-76.58379°
Altitude
27,282.952 km
Speed
2.804 km/s
Apparent Right ascension
14h 36m 33s
Apparent Declination
2° 24' 02"
Sunlit
Object is in daylight
Visualization observer readout
Local Sidereal Time
02:37:25
Azimuth
0.325° NNE
Elevation
-47.683°
Doppler factor
1
Orbital elements
Apogee altitude
33,727.417 km
Perigee altitude
3,901.006 km
Semi-major axis
25,192.349 km
Eccentricity
0.59197
Inclination
12.0627°
RAAN
166.1719°
Arg. of periapsis
203.5362°
True anomaly
Unknown
Mean anomaly
111.2911°
Eccentric anomaly
Unknown
Mean motion
0.5428 °/min
Orbital period
663.23 mins
BSTAR
0
Loading maneuver chart data...
Loading SW <> Apogee altitude chart data...
Loading historical data...
Loading historical data...
Loading historical data...
Loading historical data...
Loading historical data...
Loading historical data...
Loading historical data...
Other satellites on launch #5 in the year 2016 (2016-01-29 UTC)

BREEZE-M R/B Visibility forecast

Observer location: undefined°, undefined°

Span
Click to sort rows by Start time (UTC) header in descending order
Start Az.
Max El. time (UTC)
Max El. Az.
Max El.
End time (UTC)
End Az.
589 mins2025-07-09 17:59:47.006Z192.159° SSW2025-07-10 01:46:47.006Z153.885° SSE37.727°2025-07-10 03:48:47.006Z109.318° ESE
|